Regional Weather Roundup
Issued by NWS Portland, ME

Home | Current Version | Previous Version | Text Only | Print | Product List | Glossary On
Versions: 1 2 3 4 5 6 7 8 9 10 11 12 13 14 15 16 17 18 19 20 21 22 23 24 25 26 27 28 29 30 31 32 33 34 35 36 37 38 39 40 41 42 43 44 45 46 47 48 49 50
000
ASUS41 KGYX 231310
RWRGYX
WEATHER ROUNDUP FOR MAINE AND NEW HAMPSHIRE
NATIONAL WEATHER SERVICE GRAY ME
900 AM EDT THU OCT 23 2014

MEZ002-005-006-010-012-015-018-020-021-024-026-027-029-231400-
MAINE

CITY           SKY/WX    TMP DP  RH WIND       PRES   REMARKS
PORTLAND       RAIN      51  47  86 NE23G35   29.77S FOG
SANFORD        CLOUDY    48  45  87 N23G29    29.73F
BAR HARBOR     CLOUDY    52  50  93 NE21G31   29.87F
WISCASSET      CLOUDY    50  48  93 NE10G17   29.82S FOG
ROCKLAND       CLOUDY    52  48  87 NE20G33   29.80F
FRYEBURG       RAIN      48  45  89 N8        29.86F FOG
LEWISTONAUBURN CLOUDY    46  43  87 NE23G32   29.83F
AUGUSTA        CLOUDY    46  44  93 N21G32    29.88F FOG
WATERVILLE     CLOUDY    46  41  81 NE13G24   29.89S
BANGOR         LGT RAIN  48  47  96 N16       29.94F FOG
GREENVILLE       N/A     43  41  93 NE13G24   30.00S
MILLINOCKET    LGT RAIN  45  43  93 NE15G25   30.06F
HOULTON        LGT RAIN  46  43  89 NE15G24   30.11F
PRESQUE ISLE   CLOUDY    45  37  76 NE7       30.16F
FRENCHVILLE    CLOUDY    39  34  82 NE6       30.20S
CARIBOU        CLOUDY    44  37  76 NE12      30.17S
$$

NHZ002-005-008-009-011-012-014-231400-
NEW HAMPSHIRE

CITY           SKY/WX    TMP DP  RH WIND       PRES   REMARKS
PORTSMOUTH     TSTM      50  46  87 N15G23    29.69R VSB 1
ROCHESTER      LGT RAIN  49  46  90 N20G31    29.71F
NASHUA         HVY RAIN  48  48 100 NW9       29.74F VSB 1
MANCHESTER     HVY RAIN  50  46  86 N16       29.72F FOG
CONCORD        RAIN      48  47  96 N17G23    29.74F FOG
LACONIA        CLOUDY    48  45  87 NE12G17   29.78F
PLYMOUTH       CLOUDY    55  49  80 N8        29.80F
BERLIN         LGT RAIN  45  42  89 N8        29.92F
WHITEFIELD     CLOUDY    47  43  86 E9        29.88F
JAFFREY        HVY RAIN  46  45  96 VRB7      29.76F FOG
LEBANON        CLOUDY    49  43  80 N10G18    29.83F
MT WASHINGTON  LGT RAIN  32  32 100 E63G70      N/A  VSB 1/16WCI  13
$$

VTZ005-007-008-231400-
VERMONT

CITY           SKY/WX    TMP DP  RH WIND       PRES   REMARKS
ST JOHNSBURY     N/A     48  41  76 MISG      29.88F
MONTPELIER     CLOUDY    43  39  86 N12       29.94F
BURLINGTON     CLOUDY    45  37  73 N17G23    29.98F
$$

MAZ007-012-024-CTZ003-RIZ002-NYZ038-NYZ072-231400-
SOUTHERN NEW ENGLAND AND NY

CITY           SKY/WX    TMP DP  RH WIND       PRES   REMARKS
BOSTON         RAIN      50  48  93 N23G37    29.65F FOG
WORCESTER      LGT RAIN  47  45  93 N25G39    29.64F
NANTUCKET      PTSUNNY   57  55  93 N14       29.52F
PROVIDENCE     CLOUDY    54  49  83 N23G30    29.61S
HARTFORD       RAIN      50  46  86 N23G35    29.66F
ALBANY         LGT RAIN  46  43  89 N9        29.86F
NEW YORK CITY  LGT RAIN  51  47  86 N16G30    29.70R
$$

ANZ081-ANZ082-ANZ150-NHZ014-MEZ023>029-231400-
COASTAL MARINE OBSERVATIONS

STATION/POSITION TIME  TEMP    WIND        PRES    WAVE
                       AIR SEA DIR/SP/G            HT/PER
                 (UTC) (F)     (DEG/KT/KT) (MB)    (FT/S)
MOUNT DESERT ROC 1300   54                 1007.8F
MATINICUS ROCK   1300           60/ 38/ 43 1006.5F
PORTLAND WX BUOY 1250   51 54   30/ 29/ 37 1005.5F  10/ 9
WELLS            1200   49 51   20/ 22/ 34 1005.4F
ISLE OF SHOALS   1300   51      30/ 46/ 52 1002.0F
JEFFREYS LEDGE   1221      56                N/A    19/10
CASHES LEDGE BUO 1250   56 55   60/ 31/ 41 1002.4R  18/10
$$

.............KEY..............
   WCI - WIND CHILL
   TC  - TEMPERATURE IN CELSIUS
   VSB - VISIBILITY IN MILES
   HX  - HEAT INDEX
   FAIR- INDICATES FEW OR NO CLOUDS BELOW 12,000 FT, WITH NO
         SIGNIFICANT WEATHER AND/OR OBSTRUCTIONS TO VISIBILITY.





USA.gov is the U.S. government's official web portal to all federal, state and local government web resources and services.